CAPE
7 1 2 0 1 2 2 2 1 1 0 0 0 0 0 0 0 0 0 0 0 0 0 0 0 0 0 0 0 0 0 0 0 0 0 0 0 0 0 0 0 0 26 77 142 29 16
4 2 2 2 2 1 2 2 0 0 0 0 0 0 0 0 0 0 0 0 0 0 0 0 2 0 0 0 0 0 0 0 0 0 0 0 0 0 0 0 0 2 1 51 19 18 12
2 6 2 1 2 1 1 0 0 0 0 0 0 0 0 0 0 0 0 0 0 0 0 1 3 0 0 0 0 0 0 0 0 0 0 0 0 0 0 0 0 6 1 3 36 0 0
2 1 1 2 1 1 1 1 0 0 0 0 0 0 0 0 0 0 0 0 0 0 0 0 2 0 0 0 0 0 0 0 0 0 0 0 0 0 0 0 0 0 0 2 0 0 0
3 3 3 2 1 0 0 0 0 0 0 0 0 0 0 0 0 0 0 0 0 0 0 1 0 0 0 0 0 0 0 0 0 0 0 0 0 0 0 0 0 0 0 0 3 0 1
4 3 2 2 0 0 0 0 0 0 0 0 0 0 0 0 0 0 0 0 0 0 0 0 0 0 0 0 0 0 0 0 0 0 0 0 0 0 0 0 0 0 0 0 0 49 8
3 3 3 3 1 0 0 0 0 0 0 0 0 0 0 0 0 0 0 0 0 0 0 0 0 0 0 0 0 0 0 0 0 0 0 0 0 0 0 0 0 0 0 0 7 35 10
4 3 1 2 1 0 0 0 0 0 0 0 0 0 0 0 0 0 0 0 0 0 0 0 0 0 0 0 0 0 0 0 0 0 0 0 0 0 0 0 0 0 0 0 0 0 18
3 0 0 0 0 0 0 0 0 0 0 0 0 0 0 0 0 0 0 0 0 0 0 0 0 0 0 0 0 0 0 0 0 0 0 0 0 0 0 0 0 0 0 0 0 0 0
0 0 0 0 0 0 0 0 0 0 0 0 0 0 0 0 0 0 0 0 0 0 0 0 0 0 0 0 0 0 0 0 0 0 0 0 0 0 0 0 0 0 0 0 0 0 0
0 0 2 0 0 0 0 0 0 0 0 0 0 0 0 0 0 0 0 0 0 0 0 0 0 0 0 0 0 0 0 0 0 0 0 0 0 0 0 0 0 0 0 0 0 0 0
1 3 2 0 0 0 0 0 0 0 0 0 0 0 0 0 0 0 0 0 0 0 0 0 0 0 0 0 0 0 0 0 0 0 0 0 0 0 0 0 0 0 0 0 0 0 0
3 3 0 0 0 0 0 0 0 0 0 0 0 0 0 0 0 0 0 0 0 0 0 0 0 0 0 0 0 0 0 0 0 0 0 0 0 0 0 0 0 0 0 0 0 0 0
4 0 0 0 0 0 0 0 0 0 0 0 0 0 0 0 0 0 0 0 0 0 0 0 0 0 0 0 0 0 0 0 0 0 0 0 0 0 0 0 0 0 0 0 0 0 0
3 1 0 0 0 0 0 0 0 0 0 0 0 0 0 0 0 0 0 0 0 1 0 0 0 0 0 0 0 0 0 0 0 0 0 0 0 0 0 0 0 0 0 0 0 0 0
0 0 0 0 0 0 0 0 0 0 0 0 0 0 0 0 0 0 22 22 0 0 0 0 0 0 0 0 0 0 0 0 0 0 0 0 0 0 0 0 0 0 0 0 0 0 0
0 0 0 0 0 0 0 0 0 0 0 0 0 0 0 0 0 24 8 0 0 0 0 0 0 0 0 0 0 0 0 0 0 0 0 0 0 0 0 0 0 0 0 0 0 0 0
0 0 0 0 0 0 0 0 0 0 0 0 0 0 0 0 2 14 16 6 8 1 29 23 3 0 0 1 0 0 0 0 0 0 0 0 0 0 0 0 0 0 0 0 0 0 0
0 0 0 0 0 0 0 0 0 0 0 0 0 0 0 0 6 24 31 27 63 72 39 32 15 0 0 0 0 0 0 0 0 0 0 0 0 0 0 0 0 0 0 0 0 0 0
0 0 0 0 0 0 0 0 0 0 0 0 0 1 0 0 13 24 18 37 50 51 33 29 31 13 0 0 0 0 1 0 0 0 0 0 0 0 0 0 0 0 0 0 0 0 0
0 0 0 0 0 0 0 1 0 0 0 0 4 2 3 2 5 12 32 24 57 44 31 37 36 2 7 4 7 1 0 1 0 0 0 0 0 0 0 0 0 0 0 0 0 0 0
0 0 0 0 0 0 0 0 0 8 0 14 10 3 5 12 10 20 19 28 27 24 14 31 21 19 5 5 4 1 10 0 1 0 0 0 0 0 0 0 0 0 0 0 0 0 0
0 0 0 0 0 0 0 0 1 7 12 3 23 17 27 2 12 15 8 9 19 8 4 49 11 10 19 15 13 5 3 0 0 0 0 0 0 1 0 0 0 0 0 0 0 0 0
0 0 0 0 0 0 0 0 1 5 32 17 5 8 7 0 7 8 10 13 8 21 10 2 11 30 40 28 0 0 0 0 0 0 0 0 0 0 1 0 0 0 0 0 0 0 0
0 0 0 0 0 0 0 1 4 8 17 29 4 12 6 0 5 8 5 11 6 10 12 30 25 22 25 25 4 31 6 0 0 0 0 0 0 0 0 0 0 0 0 0 0 0 0
0 0 0 0 0 0 1 5 6 9 15 22 21 18 3 1 0 7 17 11 7 12 17 69 52 37 28 44 26 0 21 7 0 0 0 0 0 0 0 0 5 0 0 0 0 0 0
0 0 0 0 0 3 5 3 7 14 13 16 9 8 9 2 1 4 14 14 20 21 13 13 12 39 51 34 17 36 2 21 6 1 0 0 0 0 0 0 0 0 5 3 0 105 92
0 0 0 0 3 4 1 4 8 9 7 12 16 5 2 1 1 2 4 5 19 13 15 26 9 56 14 26 25 30 14 56 6 0 0 0 0 0 0 0 0 0 0 29 8 1 3
0 0 0 2 3 4 2 6 5 5 4 12 7 1 2 3 1 0 0 7 8 8 14 16 13 9 6 32 67 27 49 27 18 18 0 0 0 0 0 0 0 0 0 0 0 0 0
CIN
-1 0 0 0 0 0 0 0 0 0 0 0 0 0 0 0 0 0 0 0 0 0 0 0 0 0 0 0 0 0 0 0 0 0 0 0 0 0 0 0 0 0 -12 -3 -4 -2 -2
0 0 0 0 0 0 0 0 0 0 0 0 0 0 0 0 0 0 0 0 0 0 0 0 0 0 0 0 0 0 0 0 0 0 0 0 0 0 0 0 0 -3 -14 -4 -3 -3 -3
0 0 0 0 0 0 0 0 0 0 0 0 0 0 0 0 0 0 0 0 0 0 0 0 0 0 0 0 0 0 0 0 0 0 0 0 0 0 0 0 0 -3 -4 -5 -3 0 0
0 0 0 0 0 0 0 0 0 0 0 0 0 0 0 0 0 0 0 0 0 0 0 0 0 0 0 0 0 0 0 0 0 0 0 0 0 0 0 0 0 0 0 -4 0 0 0
0 0 0 0 0 0 0 0 0 0 0 0 0 0 0 0 0 0 0 0 0 0 0 0 0 0 0 0 0 0 0 0 0 0 0 0 0 0 0 0 0 0 0 0 -3 0 -1
0 0 0 0 0 0 0 0 0 0 0 0 0 0 0 0 0 0 0 0 0 0 0 0 0 0 0 0 0 0 0 0 0 0 0 0 0 0 0 0 0 0 0 0 0 -6 -4
0 0 0 0 0 0 0 0 0 0 0 0 0 0 0 0 0 0 0 0 0 0 0 0 0 0 0 0 0 0 0 0 0 0 0 0 0 0 0 0 0 0 0 0 -3 -9 -8
0 0 0 0 0 0 0 0 0 0 0 0 0 0 0 0 0 0 0 0 0 0 0 0 0 0 0 0 0 0 0 0 0 0 0 0 0 0 0 0 0 0 0 0 0 0 -4
-1 0 0 0 0 0 0 0 0 0 0 0 0 0 0 0 0 0 0 0 0 0 0 0 0 0 0 0 0 0 0 0 0 0 0 0 0 0 0 0 0 0 0 0 0 0 0
0 0 0 0 0 0 0 0 0 0 0 0 0 0 0 0 0 0 0 0 0 0 0 0 0 0 0 0 0 0 0 0 0 0 0 0 0 0 0 0 0 0 0 0 0 0 0
0 0 0 0 0 0 0 0 0 0 0 0 0 0 0 0 0 0 0 0 0 0 0 0 0 0 0 0 0 0 0 0 0 0 0 0 0 0 0 0 0 0 0 0 0 0 0
0 0 0 0 0 0 0 0 0 0 0 0 0 0 0 0 0 0 0 0 0 0 0 0 0 0 0 0 0 0 0 0 0 0 0 0 0 0 0 0 0 0 0 0 0 0 0
0 0 0 0 0 0 0 0 0 0 0 0 0 0 0 0 0 0 0 0 0 0 0 0 0 0 0 0 0 0 0 0 0 0 0 0 0 0 0 0 0 0 0 0 0 0 0
0 0 0 0 0 0 0 0 0 0 0 0 0 0 0 0 0 0 0 0 0 0 0 0 0 0 0 0 0 0 0 0 0 0 0 0 0 0 0 0 0 0 0 0 0 0 0
0 0 0 0 0 0 0 0 0 0 0 0 0 0 0 0 0 0 0 0 0 -7 0 0 0 0 0 0 0 0 0 0 0 0 0 0 0 0 0 0 0 0 0 0 0 0 0
0 0 0 0 0 0 0 0 0 0 0 0 0 0 0 0 0 0 -8 -4 0 0 0 0 0 0 0 0 0 0 0 0 0 0 0 0 0 0 0 0 0 0 0 0 0 0 0
0 0 0 0 0 0 0 0 0 0 0 0 0 0 0 0 0 -7 -16 -14 0 0 0 0 0 0 0 0 0 0 0 0 0 0 0 0 0 0 0 0 0 0 0 0 0 0 0
0 0 0 0 0 0 0 0 0 0 0 0 0 0 0 0 -2 -7 -13 -10 -8 -2 -3 -5 -4 0 0 -4 0 0 0 0 0 0 0 0 0 0 0 0 0 0 0 0 0 0 0
0 0 0 0 0 0 0 0 0 0 0 0 0 0 0 0 -4 -4 -7 -8 -6 -7 -6 -5 -3 -11 -20 -2 -1 0 0 0 0 0 0 0 0 0 0 0 0 0 0 0 0 0 0
0 0 0 0 0 0 0 0 0 0 0 0 0 -2 0 -5 -7 -4 -3 -4 -10 -5 -6 -4 -3 -2 0 0 0 0 -2 0 0 0 0 0 0 0 0 0 0 0 0 0 0 0 0
0 0 0 0 0 0 0 -1 0 0 0 0 -3 -6 -1 -4 -5 -3 -3 -7 -4 -10 -5 -5 -16 -23 -1 0 -7 0 0 -2 0 0 0 0 0 0 0 -3 0 0 0 0 0 0 0
0 0 0 0 0 0 0 0 0 -1 0 -1 -1 -1 -2 -2 -2 -4 -8 -2 -2 -4 -4 -4 -4 -7 -6 -1 -2 -1 -1 -3 -2 0 0 0 0 0 0 0 0 0 0 0 0 0 0
0 0 0 0 0 0 0 0 0 -2 -2 0 0 -1 0 -2 -2 -4 -7 -11 -4 -2 -6 -9 -6 -3 -5 -5 -6 -4 -4 0 0 0 0 0 0 -3 0 0 0 0 0 0 0 0 0
0 0 0 0 0 0 0 0 0 -1 0 0 -3 0 0 -1 -4 -4 -4 -4 -6 -3 -2 -3 -3 -7 -5 -5 -1 0 0 0 0 0 0 0 0 -2 -3 0 0 0 0 0 0 0 0
0 0 0 0 0 0 0 0 0 -1 -1 0 -4 0 0 0 -3 -4 -4 -2 -3 -2 -7 -15 -4 -3 -5 -2 -4 -4 -5 -1 0 0 0 0 0 -1 0 0 0 0 0 0 0 0 0
0 0 0 0 0 0 0 0 0 -1 -2 0 0 -2 0 0 0 -1 -2 -2 -2 -3 -2 -7 -5 -5 -5 -7 -5 -3 -5 -7 0 0 0 0 0 0 0 0 -6 0 0 0 0 0 0
0 0 0 0 0 0 0 0 0 0 -2 0 -2 -10 -1 0 -1 -1 -1 -1 -2 -1 -2 -2 -12 -4 -4 -5 -5 -9 -15 -11 -8 -1 0 0 0 0 0 0 0 -6 -5 -1 0 -16 -29
0 0 0 0 0 0 0 -1 0 0 0 0 0 -15 0 0 0 0 -1 0 -1 0 -1 -1 -1 -4 -11 -2 -4 -9 -7 -6 -12 0 0 0 0 0 0 0 0 0 0 -2 -23 -43 -14
0 0 0 0 0 0 -1 0 0 0 -1 0 0 -2 -5 0 0 0 0 -2 -1 -2 -1 0 -1 -2 -7 -2 -1 -2 -9 -8 -6 -9 0 0 -1 0 0 0 0 0 0 0 0 0 0
Wind_Speed
32 33 33 33 33 34 34 35 36 36 37 37 38 38 39 39 39 39 39 39 37 36 35 35 28 23 19 12 21 18 12 2 7 18 22 19 24 19 26 17 9 32 30 11 18 16 15
33 33 33 34 35 35 36 37 37 38 39 39 40 41 41 41 41 41 42 41 40 38 36 29 18 13 14 13 18 2 8 3 5 17 18 20 21 19 20 25 19 15 34 26 16 10 4
33 34 34 35 36 37 37 38 39 39 40 41 42 43 43 44 44 43 43 41 40 36 32 22 12 6 13 9 13 15 3 4 9 17 15 12 12 13 25 27 29 18 24 6 23 16 13
34 35 35 36 37 37 38 39 40 41 42 43 44 45 46 46 46 46 44 42 38 34 27 19 7 7 21 16 14 12 4 7 8 18 13 15 20 14 24 31 16 29 34 32 13 8 14
35 35 36 37 38 38 39 40 42 43 44 45 46 47 48 48 48 48 44 41 33 28 21 11 11 12 24 14 12 10 6 9 9 9 8 13 18 22 19 36 26 31 13 30 19 12 7
35 36 37 38 39 40 41 42 43 44 46 47 48 49 49 50 50 47 44 40 26 23 17 16 23 18 21 15 11 9 11 9 11 10 8 9 13 17 22 20 22 17 19 30 18 9 9
36 36 38 38 39 40 41 42 43 45 46 48 49 50 50 51 49 45 42 34 28 26 23 26 19 23 22 12 13 9 13 11 13 13 13 14 14 31 26 32 38 40 31 23 26 13 10
36 37 38 39 40 41 42 44 45 46 47 49 50 51 51 51 46 42 37 30 28 32 44 40 43 43 30 22 18 13 15 15 18 20 16 15 34 17 21 24 39 39 41 32 24 22 21
36 37 38 39 40 42 43 45 46 47 48 50 51 52 52 51 43 36 28 30 33 35 38 44 35 31 24 23 23 17 21 20 21 22 22 20 21 21 17 18 22 23 22 29 28 15 19
35 36 38 39 40 42 44 45 46 47 48 50 51 52 52 50 34 38 28 37 34 30 38 39 28 29 24 21 34 24 22 24 22 26 23 27 35 14 18 20 19 20 20 35 29 32 25
35 36 37 39 40 42 43 43 44 45 46 47 48 50 48 40 38 36 38 38 33 23 41 16 18 16 19 26 18 26 22 27 26 25 26 30 27 20 24 30 35 45 26 23 37 37 36
33 35 37 38 38 38 40 42 43 45 46 47 47 47 43 34 33 37 40 37 26 29 42 23 21 23 22 29 35 17 26 29 29 31 33 47 30 37 30 31 35 32 28 27 21 31 52
33 34 35 35 37 39 41 42 43 43 43 39 36 33 31 27 38 38 37 31 33 38 21 23 27 25 30 30 36 27 30 33 37 38 39 37 51 33 36 28 23 22 16 13 19 30 38
31 32 33 35 37 38 41 44 43 43 41 38 36 27 21 24 30 33 32 33 40 33 27 32 35 39 38 36 33 35 33 37 40 39 38 41 44 51 30 25 20 20 22 18 17 30 39
31 32 34 34 36 37 40 44 41 43 44 39 34 27 22 34 29 25 28 35 36 34 33 36 40 41 37 34 34 39 40 42 39 41 44 39 51 27 38 30 27 23 36 33 30 15 38
31 32 33 33 36 39 37 41 40 42 40 37 33 25 23 35 25 18 24 30 30 29 34 34 37 33 30 27 34 39 44 41 44 45 49 47 40 43 29 33 38 43 24 33 42 42 38
30 31 32 32 36 38 38 39 39 42 43 33 26 26 27 29 17 16 28 27 30 34 31 34 39 40 33 33 35 39 39 27 31 38 49 55 45 37 40 42 35 35 37 35 40 45 37
29 29 30 33 35 38 39 38 40 42 45 37 28 27 29 25 22 21 26 30 29 31 29 31 37 40 37 32 36 33 33 23 27 32 43 51 42 48 43 36 37 36 36 27 39 41 44
28 28 30 32 33 34 36 37 37 39 41 37 28 22 20 24 29 25 22 27 25 27 28 26 28 32 35 35 32 28 26 26 26 29 29 34 46 47 43 37 39 47 36 36 35 38 41
27 27 29 30 30 31 31 33 34 37 38 33 25 23 25 20 22 22 21 10 28 24 25 27 25 26 33 39 35 34 30 27 26 27 30 31 42 48 45 40 33 41 40 37 36 44 38
25 26 27 27 27 28 31 30 31 34 33 27 21 23 22 21 24 20 13 10 18 26 26 27 23 25 28 35 36 28 29 30 26 25 28 33 43 46 49 33 35 39 45 41 39 39 46
25 24 25 24 26 28 29 26 29 30 30 21 23 24 18 18 18 16 13 11 21 28 30 29 26 29 29 32 38 36 33 28 27 25 28 32 43 44 48 44 33 40 43 47 42 43 42
24 23 23 21 24 27 25 25 27 26 25 25 20 17 16 17 17 17 15 14 15 24 23 24 29 30 32 30 32 37 36 38 37 34 31 32 36 41 49 45 37 46 43 41 41 41 40
23 24 22 20 22 25 21 23 24 22 18 18 17 14 14 15 15 14 12 7 8 4 14 26 30 31 32 30 32 37 41 41 39 39 35 35 34 35 45 43 52 42 35 34 36 37 38
23 23 21 20 19 21 17 20 21 19 15 13 14 11 12 10 11 10 12 6 2 1 6 14 28 27 28 30 32 33 39 41 43 40 40 37 36 37 41 45 35 44 33 36 42 43 34
22 23 19 17 16 16 15 19 19 19 15 12 10 6 7 8 8 11 7 4 1 3 5 6 6 22 24 25 29 32 32 35 42 40 37 38 37 41 37 43 46 21 20 22 26 39 37
22 22 17 17 15 16 15 17 19 17 14 14 11 5 5 4 3 1 6 5 1 4 6 7 10 17 20 20 26 31 33 27 34 38 38 40 43 47 45 41 37 21 12 20 34 22 16
21 19 16 16 15 20 14 17 18 16 13 13 11 4 4 5 5 8 6 2 2 5 6 8 8 13 18 17 19 22 30 26 33 33 31 39 46 48 47 49 48 20 21 29 21 20 20
19 18 16 15 15 19 14 16 17 15 11 10 11 6 6 4 3 6 9 13 11 9 8 10 13 12 15 17 18 20 26 24 31 40 33 39 37 43 43 49 30 32 28 23 25 27 26
Wind_Direction
4 1 358 356 352 349 346 343 341 338 335 332 328 324 320 317 314 310 307 302 296 290 285 288 304 309 312 314 222 313 335 46 164 168 172 174 176 177 179 175 208 205 237 299 285 289 292
4 1 359 356 353 350 347 344 342 339 337 333 329 325 321 316 313 310 309 305 300 292 295 307 316 318 312 292 289 185 327 67 153 169 176 175 179 181 242 187 184 279 220 261 286 305 26
3 1 358 355 353 351 349 346 343 340 337 335 331 327 323 319 315 311 308 305 302 306 309 321 323 307 298 276 315 299 222 172 150 164 177 207 225 202 185 256 258 194 268 220 268 280 293
4 1 358 355 353 351 349 347 344 342 339 337 334 330 326 321 316 313 309 308 308 310 320 324 332 311 296 313 209 296 268 190 171 165 172 245 243 229 189 254 267 195 207 204 182 179 274
5 2 359 357 353 351 348 346 343 340 338 335 332 330 327 324 320 315 310 310 314 321 325 337 330 299 296 311 275 215 241 194 189 178 246 254 244 249 242 212 258 194 203 193 186 187 221
7 5 1 358 354 352 350 347 344 341 339 336 333 330 328 324 321 317 313 310 320 320 322 311 300 301 290 302 284 234 201 209 200 223 232 207 236 236 239 217 199 239 196 245 189 189 247
6 4 1 359 357 355 352 351 349 347 343 340 336 332 329 324 320 320 322 320 313 305 297 286 292 283 303 288 297 248 198 207 211 212 203 193 211 191 192 192 242 240 250 252 254 203 199
5 4 2 1 1 357 352 350 349 346 343 341 338 333 330 325 320 322 325 325 320 306 287 282 275 269 273 284 277 256 190 209 202 195 212 235 195 205 245 240 242 244 243 251 254 259 264
9 8 6 4 2 358 354 352 349 346 343 341 338 335 331 327 323 330 332 328 320 312 290 282 274 267 257 253 264 238 200 203 208 205 200 206 258 242 234 229 201 212 231 251 254 252 260
14 11 8 6 3 360 357 355 352 349 346 343 341 339 335 331 331 329 325 321 318 315 290 284 277 274 248 248 259 251 203 202 238 206 206 237 244 232 206 199 203 219 211 249 254 252 254
15 14 12 8 5 2 1 0 358 356 353 351 349 346 343 343 332 328 321 317 312 308 281 293 275 289 260 232 274 228 205 210 238 236 225 202 240 240 191 190 193 218 249 243 248 252 255
19 16 12 10 10 10 8 5 3 1 358 355 351 349 349 352 339 334 327 317 304 281 271 283 284 272 257 243 253 239 218 220 233 242 243 237 246 242 248 246 240 243 250 252 247 253 237
17 16 15 14 13 11 9 7 6 4 3 3 1 1 1 3 340 341 330 313 283 266 287 289 279 277 258 251 244 239 217 216 222 230 237 239 234 245 243 244 236 240 220 216 201 198 213
18 17 15 13 12 11 9 5 7 5 4 2 360 0 11 9 360 349 328 295 271 270 283 289 281 274 263 255 245 238 231 230 227 233 239 237 239 233 239 227 215 204 193 199 201 194 211
17 15 14 14 13 11 9 2 9 6 2 3 1 9 17 1 3 1 326 286 276 274 285 283 280 268 261 253 254 237 236 237 232 231 234 237 237 239 237 237 230 232 194 188 233 203 239
16 15 15 14 10 7 10 6 8 7 6 4 4 3 14 4 10 12 328 293 300 301 289 280 265 270 267 259 248 246 237 244 240 234 237 240 243 237 233 237 239 236 207 236 239 227 215
16 15 15 13 8 5 6 7 8 6 5 4 9 8 12 8 12 17 330 311 305 298 294 277 264 262 266 264 262 245 242 251 247 241 234 234 243 246 234 229 229 224 237 236 241 225 233
14 15 14 9 8 3 3 6 6 7 5 9 8 8 10 15 13 21 352 326 311 303 301 285 267 257 258 263 256 249 251 250 258 250 238 229 244 238 231 233 237 237 234 228 238 196 217
14 14 12 10 10 8 6 6 8 8 7 7 9 10 29 21 18 16 8 341 332 313 307 286 270 266 263 255 250 256 261 262 260 248 241 227 232 233 236 231 232 233 230 238 238 242 235
11 12 10 9 10 9 10 9 10 9 9 11 15 14 15 22 24 19 17 19 324 335 312 296 282 274 264 251 251 250 260 260 256 253 249 242 233 232 231 230 228 231 232 233 238 237 239
9 8 6 7 8 8 6 7 8 8 10 16 21 17 22 16 15 17 20 21 7 326 315 293 287 275 263 248 254 253 256 261 251 253 247 239 234 235 236 242 239 234 235 234 235 239 234
4 4 2 2 3 4 4 6 5 8 10 19 15 16 21 11 20 19 18 28 3 331 294 287 284 281 268 256 249 254 254 255 243 254 246 245 237 237 236 239 246 242 235 235 236 238 239
359 358 358 357 358 359 1 2 3 7 14 16 17 17 22 18 19 16 20 18 12 350 282 295 293 283 269 267 262 257 255 254 250 250 248 244 238 235 234 236 244 240 236 238 239 236 238
355 355 353 352 352 356 355 358 1 4 11 14 15 17 22 13 19 18 13 9 23 34 235 259 280 279 280 284 276 259 250 249 247 245 246 243 242 240 233 234 236 241 241 244 243 242 241
353 352 349 347 346 350 344 354 357 1 2 5 17 24 28 15 21 14 36 34 9 196 211 231 282 295 286 275 261 256 244 241 241 242 241 242 241 239 235 233 242 241 241 239 239 241 245
352 350 342 338 334 332 334 350 354 357 357 3 10 36 40 25 32 45 357 27 107 215 218 155 183 259 287 275 254 245 240 242 236 238 239 239 239 238 236 234 230 245 238 248 249 245 244
346 345 331 330 323 302 324 345 351 353 354 2 10 65 66 34 320 281 52 48 123 203 195 208 221 243 241 271 252 246 245 254 238 231 231 234 234 233 234 235 237 246 265 235 235 244 268
344 339 322 323 310 290 322 346 350 351 352 1 11 74 105 43 268 246 254 218 164 150 163 183 208 176 230 272 263 258 249 255 244 242 238 235 231 233 234 234 233 257 248 242 251 261 267
341 340 331 317 302 289 316 348 352 352 349 5 15 58 149 87 55 251 249 241 222 192 164 155 178 216 203 270 281 279 261 260 251 243 247 241 241 236 237 237 250 252 260 263 260 258 265